Date,TemperatureHighF,TemperatureAvgF,TemperatureLowF,DewpointHighF,DewpointAvgF,DewpointLowF,HumidityHigh,HumidityAvg,HumidityLow,PressureMaxIn,PressureMinIn,WindSpeedMaxMPH,WindSpeedAvgMPH,GustSpeedMaxMPH,PrecipitationSumIn
2013-1-1,33.5,23.9,14.7,24.0,11.9,-2.1,82,61,26,30.21,30.03,15,4,15,0.00
2013-1-2,24.1,16.3,5.9,15.9,11.2,3.7,100,81,57,30.31,30.15,10,6,10,0.00
2013-1-3,28.1,20.5,6.6,23.6,14.1,0.1,87,76,55,30.30,30.11,18,8,19,0.00
2013-1-4,27.4,22.2,15.3,18.9,14.0,6.9,94,71,48,30.29,30.12,24,14,24,0.00
2013-1-10,35.6,34.8,33.6,35.0,33.5,30.8,100,95,86,30.41,30.11,15,9,15,0.08
2013-1-11,58.6,46.1,34.8,54.7,43.7,32.4,100,92,62,30.14,29.75,22,7,22,0.51
2013-1-12,61.5,52.2,45.9,52.8,47.9,43.1,100,87,54,29.95,29.73,16,5,16,0.16
2013-1-13,52.2,40.5,32.2,52.2,39.9,25.4,100,98,73,30.14,29.73,24,6,24,0.87
2013-1-14,32.2,26.6,19.4,27.5,21.2,14.7,100,80,56,30.51,30.11,23,7,23,0.00
2013-1-15,32.2,25.0,16.9,23.9,19.7,14.9,100,81,53,30.55,30.15,9,1,9,0.00
2013-1-16,37.7,29.9,22.3,25.4,20.2,7.5,100,71,31,30.20,29.84,22,8,22,0.00
2013-1-17,39.1,29.4,17.8,27.3,15.9,6.5,84,58,32,30.43,29.97,24,9,24,0.00
2013-1-18,37.2,27.8,16.8,20.0,15.8,9.6,100,62,36,30.52,30.00,25,10,25,0.00
2013-1-19,48.6,40.1,33.7,31.3,22.4,12.7,67,49,34,30.04,29.67,38,16,38,0.00
2013-1-20,41.9,21.3,17.0,28.2,7.7,0.0,72,55,34,30.31,29.67,36,16,40,0.00
2013-1-21,19.1,13.9,7.3,8.9,3.4,-6.3,90,63,38,30.26,30.03,26,14,28,0.00
2013-1-22,12.1,5.8,1.6,2.5,-2.2,-8.6,85,70,43,30.46,30.19,22,10,22,0.00
2013-1-23,17.4,8.6,2.3,2.5,-1.1,-10.2,81,65,37,30.45,30.17,16,7,17,0.00
2013-1-30,54.4,44.5,30.4,52.9,40.8,22.8,99,87,70,29.43,29.19,30,16,31,0.04
2013-1-31,31.4,22.4,17.3,25.6,14.3,5.8,96,71,50,29.90,29.38,31,20,31,0.00
2013-2-1,15.4,14.3,13.7,2.0,0.3,-0.5,59,53,50,30.38,30.32,19,13,19,0.00
2013-2-5,28.9,26.1,17.9,27.6,21.2,11.6,100,83,52,30.01,29.81,17,8,17,0.00
2013-2-6,41.3,24.7,9.1,24.5,11.1,-12.3,100,60,15,30.36,29.95,17,3,17,0.00
2013-2-7,38.6,29.2,20.2,31.2,20.7,10.6,100,71,48,30.30,29.79,16,7,16,0.04
2013-2-8,31.9,27.6,15.7,31.9,22.2,12.2,100,82,48,30.44,29.77,19,4,19,0.12
2013-2-9,31.6,21.7,10.2,21.7,15.5,4.8,100,79,46,30.56,30.27,12,3,13,0.00
2013-2-10,44.4,32.0,20.8,44.4,26.1,17.4,100,80,47,30.31,29.66,17,6,17,0.12
2013-2-11,45.9,38.5,32.7,45.8,29.8,17.0,100,72,50,29.85,29.60,37,19,37,0.00
2013-2-15,33.0,26.4,19.3,16.7,11.6,1.1,86,54,29,30.23,30.05,23,8,23,0.00
2013-2-16,25.5,19.7,13.0,20.2,11.9,-4.1,94,73,35,30.22,30.01,22,9,24,0.00
2013-2-17,29.6,18.5,12.4,13.3,6.6,-10.6,94,63,24,30.29,30.13,14,5,15,0.00
2013-2-18,50.9,33.9,18.9,39.2,20.1,6.8,86,58,34,30.27,29.60,28,10,29,0.12
2013-2-19,44.0,24.2,14.4,42.2,18.7,5.8,99,80,56,30.11,29.47,31,19,31,0.12
2013-2-20,22.2,18.6,15.2,15.4,12.0,7.0,88,75,55,30.36,30.04,22,11,22,0.00
2013-2-21,26.3,21.7,19.4,16.7,13.5,9.2,80,70,51,30.43,30.21,20,7,20,0.00
2013-2-22,34.4,27.4,20.5,34.1,26.0,13.7,100,95,72,30.23,29.86,22,9,23,0.00
2013-2-23,33.4,27.8,24.7,28.2,17.5,8.5,84,65,43,30.01,29.89,19,10,20,0.00
2013-2-24,35.0,28.5,23.7,25.0,19.8,14.0,86,70,45,30.22,29.94,15,7,16,0.00
2013-2-25,40.8,29.5,16.0,26.1,20.6,14.2,100,73,39,30.32,30.04,14,4,14,0.00
2013-2-26,33.2,30.6,28.3,33.2,25.8,17.5,100,83,59,30.11,29.54,24,9,25,0.08
2013-2-27,36.6,34.6,32.9,35.4,33.9,31.3,100,97,86,29.66,29.56,15,9,15,0.28
2013-2-28,39.4,34.5,32.8,35.2,32.7,21.1,100,93,53,30.36,29.61,12,2,12,0.08
2013-3-1,33.0,28.0,24.7,31.9,19.0,10.2,96,69,46,30.18,29.94,14,6,14,0.08
2013-3-2,29.1,24.6,20.2,18.3,14.8,7.2,79,66,45,30.17,30.04,14,3,14,0.08
2013-3-3,30.6,23.5,17.7,14.8,10.4,1.5,81,58,32,30.16,30.00,17,6,18,0.08
2013-3-4,39.4,23.6,11.0,15.9,9.7,-11.4,100,60,16,30.27,30.05,8,2,8,0.08
2013-3-5,31.5,27.6,24.6,28.5,22.3,10.8,100,81,55,30.15,29.74,22,11,22,0.08
2013-3-6,37.6,30.8,25.4,27.0,22.2,13.1,90,71,43,30.27,29.79,18,7,18,0.08
2013-3-7,39.5,33.2,29.9,29.5,24.3,9.9,94,72,37,30.37,30.21,14,7,14,0.08
2013-3-11,50.7,43.8,35.4,50.5,40.5,28.9,100,88,70,29.76,29.53,26,13,26,0.71
2013-3-12,35.8,32.2,28.1,33.5,27.0,19.4,100,82,59,29.99,29.72,22,12,22,0.00
2013-3-13,30.0,27.0,24.5,28.1,17.8,8.9,94,69,44,30.32,29.91,25,14,27,0.00
2013-3-14,40.4,29.8,20.7,20.8,14.5,5.4,76,54,25,30.35,30.11,17,8,17,0.00
2013-3-15,45.5,36.7,29.6,40.1,30.3,18.6,100,79,48,30.16,29.78,18,7,19,0.04
2013-3-16,37.2,32.2,30.2,37.2,29.6,19.5,100,90,63,30.11,29.68,16,3,18,0.04
2013-3-17,34.6,28.0,25.5,24.4,15.8,5.7,84,60,36,30.29,30.05,19,8,19,0.00
2013-3-18,35.5,30.9,25.4,35.5,29.2,18.5,100,94,67,30.17,29.58,23,11,31,0.04
2013-3-19,35.2,26.5,21.0,26.8,12.5,2.4,75,56,31,30.05,29.67,33,18,33,0.00
2013-3-20,28.7,23.2,16.1,15.9,8.8,-1.8,78,54,35,30.08,29.93,24,13,24,0.00
2013-3-21,31.9,22.8,14.8,20.3,14.2,8.0,93,71,46,30.07,29.91,24,12,25,0.00
2013-3-22,42.3,30.2,22.6,23.7,14.2,4.9,87,53,24,30.09,29.93,17,8,18,0.00
2013-3-23,42.6,30.0,20.7,24.8,18.9,7.6,100,67,28,30.16,30.01,10,3,11,0.00
2013-3-24,34.9,30.2,26.1,24.9,20.5,13.4,91,68,42,30.09,29.62,28,11,28,0.00
2013-3-25,37.3,32.2,27.8,27.3,24.2,17.0,97,73,51,29.95,29.56,19,8,19,0.00
2013-3-26,41.1,34.4,30.9,30.4,25.2,17.3,94,70,42,30.19,29.92,19,9,19,0.00
2013-3-27,47.6,36.2,29.1,29.0,20.2,4.8,94,57,23,30.31,30.14,24,11,25,0.00
2013-3-28,47.6,32.0,28.0,21.5,18.2,7.1,71,57,20,30.34,30.24,15,8,15,0.00
2013-3-29,52.2,44.8,35.3,15.8,5.1,-18.8,41,22,5,30.29,29.69,14,5,14,0.00
2013-3-30,56.4,40.3,21.0,29.1,16.3,-2.7,95,45,11,30.32,29.93,16,4,16,0.00
2013-3-31,59.2,45.4,33.3,45.4,29.6,14.3,100,59,19,29.95,29.64,24,9,25,0.00
2013-4-1,42.7,32.5,21.1,26.5,9.9,-10.1,70,41,13,30.21,29.74,26,11,26,0.00
2013-4-2,43.6,29.3,18.8,18.6,6.2,-22.5,90,46,6,30.34,30.13,24,8,26,0.00
2013-4-3,46.2,32.2,16.4,16.3,2.9,-21.3,86,37,5,30.44,30.28,16,5,16,0.00
2013-4-4,57.5,38.3,20.3,19.6,6.2,-21.5,85,35,4,30.43,29.94,15,4,16,0.00
2013-4-5,52.5,41.6,32.0,28.5,11.1,-14.8,69,34,7,30.25,29.93,15,5,16,0.00
2013-4-6,60.8,44.7,30.4,23.9,13.6,-4.9,70,33,10,30.27,29.73,24,11,26,0.00
2013-4-7,60.2,53.2,42.8,41.6,31.0,21.6,71,44,26,30.01,29.64,36,13,36,0.00
2013-4-8,70.2,49.6,36.0,55.5,38.5,27.1,99,69,30,30.05,29.67,32,9,32,0.16
2013-4-9,72.3,54.5,40.3,56.0,42.9,35.2,98,69,31,30.08,29.79,26,6,26,0.00
2013-4-10,54.1,45.8,41.3,47.6,45.0,41.0,100,97,70,29.97,29.80,20,8,20,0.39
2013-4-11,42.4,39.5,37.0,42.4,39.4,36.7,100,100,92,29.98,29.62,28,14,28,0.79
2013-4-12,41.4,39.1,37.4,40.1,35.1,25.8,100,86,59,29.84,29.58,22,9,24,0.35
2013-4-13,40.6,37.8,35.2,35.2,27.7,19.8,96,68,46,30.00,29.79,27,11,27,0.35
2013-4-14,55.2,42.1,33.5,38.6,32.1,21.8,97,69,43,30.12,29.89,20,7,20,0.35
2013-4-15,67.7,54.3,35.8,52.0,42.7,33.7,100,69,36,29.98,29.81,24,8,24,0.35
2013-4-16,61.0,51.2,44.6,50.7,39.7,20.5,100,69,26,30.23,29.84,22,5,23,0.35
2013-4-17,53.8,47.0,41.7,42.5,30.8,23.3,99,54,38,30.32,29.94,22,10,22,0.20
2013-4-18,74.5,56.7,41.6,60.4,53.4,38.6,100,90,45,30.07,29.59,38,11,38,1.61
2013-4-19,57.7,44.3,37.5,57.7,39.0,22.6,100,82,54,29.66,29.43,32,16,34,0.98
2013-4-24,39.9,35.8,33.8,38.7,34.9,32.0,100,96,81,30.01,29.80,20,7,20,0.12
2013-4-25,50.8,44.1,36.2,36.1,25.0,13.5,78,48,29,30.41,29.88,29,11,29,0.00
2013-4-26,58.5,44.6,27.2,35.6,26.6,12.2,100,57,22,30.50,30.31,16,5,16,0.00
2013-4-27,67.8,52.9,33.4,40.2,27.7,7.3,100,48,12,30.40,30.06,16,4,17,0.00
2013-4-28,58.3,52.5,47.0,58.1,48.2,32.6,100,87,49,30.10,29.78,12,4,12,0.39
2013-4-29,69.4,59.3,52.7,54.7,49.4,37.3,100,74,34,29.95,29.81,13,5,15,0.00
2013-4-30,74.3,62.4,50.9,53.0,48.5,39.3,100,65,28,30.05,29.90,19,8,20,0.00
2013-5-1,80.6,66.6,46.2,56.8,46.7,34.7,100,56,20,30.22,30.02,15,4,15,0.00
2013-5-2,76.6,64.9,53.3,53.6,44.9,33.4,86,53,22,30.23,30.07,18,6,18,0.00
2013-5-3,75.6,61.6,52.9,52.5,46.3,36.3,87,60,25,30.13,29.99,19,6,19,0.00
2013-5-4,67.3,61.5,52.3,40.8,31.2,14.0,53,33,13,30.09,29.96,19,10,20,0.00
2013-5-5,69.1,58.7,48.3,41.8,33.3,20.0,72,41,20,30.08,29.96,16,7,16,0.00
2013-5-6,73.2,60.9,51.2,38.9,33.2,17.6,55,37,14,30.04,29.92,12,6,13,0.00
2013-5-7,72.8,61.3,47.9,50.6,38.9,32.5,85,45,25,30.05,29.82,17,5,17,0.00
2013-5-8,79.5,63.4,49.4,53.3,41.7,21.5,100,54,12,30.04,29.90,11,3,11,0.00
2013-5-9,80.8,68.6,48.8,55.2,40.4,17.9,100,43,10,30.00,29.90,11,3,11,0.00
2013-5-10,65.6,61.3,59.9,59.8,58.7,51.0,97,91,59,29.84,29.75,19,8,20,0.00
2013-5-13,53.0,49.9,47.5,18.7,11.4,2.5,26,21,16,30.20,30.14,17,10,17,0.00
2013-5-14,77.5,76.0,74.7,40.3,37.1,17.9,28,25,11,29.75,29.72,16,11,17,0.00
2013-5-15,80.2,75.0,62.6,43.9,32.2,20.0,44,22,11,29.80,29.67,24,10,24,0.00
2013-5-16,78.4,60.0,46.7,47.3,37.2,9.8,89,51,8,29.91,29.76,9,3,9,0.00
2013-5-20,86.8,79.7,71.5,66.0,53.9,39.8,70,43,21,30.37,29.76,25,10,25,0.00
2013-5-21,83.9,74.4,64.8,63.6,50.9,34.0,87,47,17,29.83,29.67,20,8,20,0.00
2013-5-22,71.2,66.1,59.9,62.7,58.3,51.0,100,77,52,29.76,29.66,19,5,19,0.08
2013-5-23,62.3,57.0,45.7,62.3,54.5,41.2,100,91,67,30.15,29.69,17,6,17,0.08
2013-5-24,46.2,42.7,37.4,44.6,38.0,31.7,96,84,64,30.32,30.15,9,1,9,0.08
2013-5-27,53.4,52.2,51.0,53.4,51.5,46.6,100,98,83,30.17,29.92,15,8,15,0.20
2013-5-28,74.0,60.4,53.3,64.9,58.2,53.3,100,94,61,29.97,29.81,15,3,15,0.28
2013-5-29,81.6,70.9,61.7,65.9,57.1,49.1,99,64,37,30.00,29.82,21,8,21,0.04
2013-5-30,85.3,73.5,62.5,64.0,57.2,41.9,90,61,23,30.06,29.90,21,6,22,0.04
2013-5-31,76.3,70.4,65.9,68.3,63.9,55.1,98,80,51,30.00,29.83,20,7,20,0.12
2013-6-1,75.3,67.4,61.2,65.5,59.5,48.9,100,78,43,29.91,29.68,19,7,20,2.17
2013-6-2,70.0,62.2,51.9,64.1,50.6,37.9,91,67,44,29.98,29.66,18,9,18,0.04
2013-6-3,71.8,56.2,44.0,47.3,30.9,9.0,92,44,12,30.10,29.96,12,3,12,0.04
2013-6-4,73.9,60.2,45.5,45.7,35.1,16.2,84,45,13,30.19,30.07,13,3,13,0.04
2013-6-5,76.4,62.3,52.3,44.9,34.4,16.1,70,38,13,30.17,29.92,14,6,15,0.04
2013-6-6,68.8,57.7,54.8,40.6,36.6,28.0,55,46,31,29.96,29.82,14,7,14,0.04
2013-6-7,68.2,59.1,50.6,52.2,44.6,36.0,100,61,38,29.93,29.83,12,5,15,0.00
2013-6-8,78.9,62.0,45.7,55.2,44.1,29.9,100,60,21,30.04,29.89,12,2,12,0.00
2013-6-9,81.3,68.1,57.5,61.0,51.2,44.3,83,57,31,30.08,29.87,16,6,16,0.00
2013-6-10,77.4,67.7,64.1,66.5,62.8,50.6,100,86,45,29.91,29.70,18,7,18,0.31
2013-6-11,83.5,68.8,62.4,65.5,58.7,43.4,99,75,29,29.91,29.76,15,8,15,0.00
2013-6-12,85.6,75.2,64.4,71.6,62.3,50.1,100,67,39,29.95,29.64,27,5,27,0.51
2013-6-13,69.4,65.4,62.5,68.6,59.7,45.2,100,84,43,29.94,29.52,23,6,27,0.83
2013-6-14,83.6,66.7,56.8,59.0,47.3,25.5,98,57,15,30.07,29.91,14,3,14,0.83
2013-6-15,78.9,65.4,55.0,63.3,55.8,40.2,100,75,29,30.10,29.91,14,4,14,0.83
2013-6-16,81.2,70.7,62.2,65.9,58.2,44.7,100,69,32,29.94,29.81,19,8,19,0.83
2013-6-17,84.8,73.1,61.1,68.6,53.7,31.2,100,58,16,29.94,29.83,16,4,18,0.83
2013-6-18,75.6,66.6,58.7,61.1,48.8,33.5,95,56,33,30.07,29.83,14,6,15,0.83
2013-6-19,78.4,63.1,49.3,45.2,36.1,23.7,64,40,15,30.17,30.02,11,4,11,0.83
2013-6-20,88.0,68.2,49.0,56.8,43.6,23.9,100,49,16,30.22,30.10,8,2,8,0.83
2013-6-21,85.1,74.0,59.4,61.2,48.3,33.0,96,45,18,30.20,30.00,16,5,17,0.83
2013-6-22,87.5,76.0,66.1,69.2,59.7,46.8,81,58,36,30.10,29.94,21,6,21,0.83
2013-6-23,87.3,75.8,64.2,67.2,57.6,44.6,100,59,24,30.09,29.95,21,6,28,0.83
2013-6-24,80.4,70.4,65.2,67.5,62.7,52.4,100,78,43,30.07,30.00,15,5,15,0.83
2013-6-25,71.9,66.6,64.5,66.2,64.2,55.9,99,92,62,30.16,29.77,17,4,17,0.59
2013-6-26,81.0,70.1,65.1,70.8,64.5,52.1,100,84,40,29.95,29.69,22,5,22,2.05
2013-6-27,82.8,71.6,66.8,70.1,64.9,52.5,100,82,39,29.77,29.65,14,2,14,0.04
2013-6-28,78.9,70.6,62.1,69.5,58.3,44.5,100,70,31,29.67,29.55,22,5,22,0.04
2013-6-29,77.9,66.0,59.5,64.6,58.6,41.7,100,80,32,29.72,29.56,13,3,13,0.12
2013-6-30,76.2,66.6,61.2,63.1,54.8,42.7,100,69,31,29.91,29.68,14,5,14,0.16
2013-7-1,69.5,64.0,59.0,57.6,48.0,39.8,78,57,35,30.04,29.88,22,8,22,0.04
2013-7-2,72.1,63.7,58.0,64.1,57.9,46.4,100,82,56,30.04,29.96,16,6,16,0.16
2013-7-3,81.9,70.5,63.3,67.2,59.6,44.0,100,73,31,30.10,29.98,15,5,15,0.04
2013-7-4,80.9,70.0,61.0,67.0,54.4,33.3,100,65,21,30.14,30.04,10,2,10,0.04
2013-7-5,83.0,73.3,65.6,71.0,59.6,40.1,100,69,25,30.11,30.01,10,2,10,0.04
2013-7-6,80.0,71.1,64.6,71.6,65.3,55.3,100,84,49,30.12,29.97,10,2,10,0.04
2013-7-7,80.6,68.9,64.8,69.5,64.1,49.3,100,86,38,30.05,29.97,14,4,14,0.08
2013-7-8,80.3,71.9,64.3,74.4,65.5,56.8,100,82,50,30.05,29.95,15,4,17,0.04
2013-7-9,88.2,73.8,67.3,73.6,69.7,59.4,100,89,43,29.99,29.87,24,3,25,0.47
2013-7-10,83.7,74.3,62.2,75.2,64.9,42.0,100,76,30,29.96,29.77,23,6,23,0.35
2013-7-11,81.9,68.0,57.5,57.0,46.3,29.6,91,52,18,30.06,29.94,11,3,13,0.04
2013-7-12,79.0,66.9,55.6,59.0,49.8,30.6,100,61,18,30.15,30.03,13,4,13,0.04
2013-7-13,81.7,70.9,59.7,63.9,55.4,43.4,98,62,27,30.20,30.10,14,5,15,0.04
2013-7-14,86.8,75.4,64.8,66.3,59.8,44.0,100,64,30,30.24,30.16,12,4,12,0.04
2013-7-15,91.8,79.6,67.9,72.1,62.5,49.1,100,62,26,30.29,30.20,11,3,14,0.04
2013-7-16,91.7,81.4,71.0,73.9,61.4,44.1,99,58,22,30.32,30.23,14,4,14,0.04
2013-7-17,91.5,80.9,70.7,73.1,63.6,47.0,94,61,26,30.31,30.15,15,5,16,0.04
2013-7-18,91.7,81.4,70.7,72.8,63.6,49.4,100,60,26,30.19,29.96,15,5,15,0.04
2013-7-19,90.7,82.1,73.7,72.0,63.4,49.9,93,58,28,30.00,29.74,25,10,25,0.04
2013-7-20,86.3,77.3,67.9,74.4,59.8,40.8,100,60,22,29.93,29.71,26,4,28,0.63
2013-7-21,85.6,73.1,63.4,64.6,56.4,40.5,96,61,23,29.99,29.87,9,3,9,0.04
2013-7-22,82.9,70.4,63.1,68.6,60.3,44.4,99,74,29,29.93,29.73,20,3,20,0.91
2013-7-23,81.2,71.2,60.5,70.9,57.6,41.7,100,68,29,29.87,29.67,21,6,22,0.04
2013-7-24,75.0,61.1,50.4,55.5,42.1,28.9,96,54,22,30.05,29.83,13,3,13,0.04
2013-7-25,67.3,55.5,50.3,55.6,51.7,39.4,100,89,41,30.11,30.01,4,0,4,0.04
2013-7-27,76.0,65.7,53.3,63.2,48.9,37.2,95,57,27,29.92,29.72,24,9,24,0.00
2013-7-28,65.9,56.3,49.2,52.5,45.0,33.9,99,70,35,30.04,29.84,21,8,21,0.00
2013-7-29,75.9,59.6,49.0,55.6,48.3,38.0,100,71,31,30.21,29.98,17,4,17,0.00
2013-7-30,81.0,64.4,48.0,60.9,49.0,32.5,100,64,23,30.25,30.08,9,2,9,0.00
2013-7-31,74.5,67.8,63.7,66.9,61.9,51.6,100,83,49,30.13,29.88,12,4,14,0.00
2013-8-1,79.5,67.6,57.3,66.7,55.4,31.5,100,72,20,29.97,29.87,22,5,22,0.00
2013-8-2,75.4,64.5,51.1,66.1,57.7,48.5,100,80,47,29.99,29.81,19,6,19,0.31
2013-8-3,78.6,69.0,59.2,67.2,49.8,28.0,100,59,17,30.07,29.90,13,3,15,0.00
2013-8-4,76.4,63.3,51.8,55.7,44.3,27.5,100,56,19,30.17,30.03,14,2,14,0.00
2013-8-5,74.9,63.0,49.2,56.7,48.0,21.9,100,65,15,30.15,29.92,10,1,10,0.00
2013-8-6,78.8,68.0,61.2,67.5,59.8,51.3,100,77,46,29.98,29.86,13,4,14,0.12
2013-8-7,80.7,70.6,61.6,71.6,64.9,49.0,100,85,39,29.91,29.81,12,2,12,0.20
2013-8-8,77.1,69.7,65.0,67.8,61.0,51.4,97,75,45,29.99,29.87,10,3,11,0.00
2013-8-9,80.3,69.8,61.7,62.1,49.5,26.7,98,54,18,30.03,29.91,11,2,12,0.00
2013-8-10,81.2,69.2,61.3,64.8,55.7,41.0,100,67,26,30.12,29.99,10,2,10,0.00
2013-8-11,79.6,67.1,53.6,65.9,50.7,34.2,100,64,21,30.14,30.01,12,2,12,0.00
2013-8-12,81.6,69.5,59.6,64.9,56.5,42.7,100,68,28,30.09,29.81,13,3,13,0.04
2013-8-13,71.7,62.1,53.8,64.5,45.1,22.6,100,61,21,30.10,29.83,15,4,15,0.00
2013-8-14,74.6,57.8,46.0,51.3,38.8,19.1,97,56,15,30.20,30.06,13,2,13,0.00
2013-8-15,77.3,60.2,44.9,55.8,40.0,16.1,100,59,12,30.20,30.06,13,2,13,0.00
2013-8-16,81.2,64.3,49.7,55.1,42.3,19.5,100,55,12,30.22,30.10,10,2,10,0.00
2013-8-17,79.1,63.9,48.0,59.6,47.1,31.0,100,62,19,30.28,30.14,11,2,11,0.00
2013-8-18,82.7,68.3,55.4,65.3,49.5,25.2,100,60,17,30.22,30.07,8,2,8,0.00
2013-8-19,84.0,69.6,55.2,60.1,48.3,25.1,100,56,13,30.15,30.01,12,3,12,0.00
2013-8-20,85.2,70.4,56.4,64.1,53.3,37.3,100,64,19,30.15,30.04,13,3,13,0.00
2013-8-21,85.7,72.8,59.7,64.2,56.7,39.8,100,63,22,30.14,29.98,15,4,16,0.00
2013-8-22,80.8,70.7,65.0,69.0,63.9,51.6,100,81,42,30.06,29.93,26,4,27,0.31
2013-8-23,80.9,69.7,55.4,67.2,48.5,19.5,100,58,12,30.20,30.02,10,3,10,0.00
2013-8-24,81.4,67.4,54.2,60.0,48.1,27.4,100,59,17,30.31,30.17,10,3,10,0.00
2013-8-25,84.8,69.5,52.8,61.0,50.5,32.3,100,60,18,30.32,30.14,15,4,15,0.00
2013-8-26,85.5,74.0,60.1,64.1,56.6,44.6,94,58,27,30.21,29.97,16,6,16,0.00
2013-8-27,87.7,77.3,67.9,70.2,64.2,55.3,97,67,35,30.01,29.84,15,6,15,0.00
2013-8-28,84.2,76.9,69.5,71.3,63.6,53.5,98,66,37,30.01,29.79,15,4,15,0.04
2013-8-29,87.3,74.2,62.2,69.8,59.8,43.2,100,68,24,30.06,29.97,9,2,9,0.00
2013-8-30,87.0,74.5,59.9,68.2,57.7,44.0,100,63,24,30.00,29.72,17,4,17,0.00
2013-8-31,83.0,74.9,68.0,71.5,61.4,41.7,100,67,29,29.84,29.69,9,2,10,0.00
2013-9-1,83.4,73.3,66.9,69.8,63.0,44.5,100,74,30,29.82,29.69,12,4,12,0.00
2013-9-2,79.3,69.1,56.7,69.1,53.5,31.8,100,65,20,29.95,29.70,19,4,19,0.00
2013-9-3,76.7,62.9,56.7,53.7,41.4,30.6,83,48,21,30.05,29.91,14,3,14,0.00
2013-9-4,80.8,64.5,48.0,57.9,44.7,25.0,100,58,17,30.13,30.00,16,5,16,0.00
2013-9-5,77.1,63.5,51.4,59.6,33.5,-3.2,100,45,5,30.27,30.08,11,3,11,0.00
2013-9-6,79.1,61.7,44.8,51.3,38.6,19.1,100,53,12,30.32,30.05,10,2,10,0.00
2013-9-7,86.5,69.1,52.7,54.5,48.1,35.2,89,52,19,30.12,29.87,18,4,18,0.00
2013-9-8,80.0,68.6,59.5,64.3,54.9,43.9,94,64,34,30.05,29.90,14,4,14,0.00
2013-9-9,88.3,70.4,57.0,61.8,53.9,40.8,97,62,23,30.07,29.85,18,4,18,0.00
2013-9-10,94.4,81.4,70.7,69.9,53.4,30.7,95,47,11,30.03,29.88,18,7,19,0.00
2013-9-11,93.4,78.5,68.8,69.8,56.7,30.5,100,56,12,30.06,29.89,20,7,21,0.43
2013-9-12,80.0,69.0,56.4,69.0,55.3,22.0,100,70,15,29.99,29.79,14,4,18,0.51
2013-9-13,61.2,53.2,42.8,48.3,37.0,19.6,94,58,22,30.18,29.94,13,3,13,0.51
2013-9-14,70.4,52.2,37.1,45.6,32.2,5.9,100,60,10,30.24,30.05,10,1,10,0.00
2013-9-15,67.2,53.4,42.3,54.8,44.7,29.8,100,79,27,30.16,29.98,12,2,12,0.35
2013-9-16,66.5,56.4,48.2,54.4,44.4,24.2,100,69,23,30.38,30.10,11,3,11,0.00
2013-9-17,70.4,54.2,41.2,44.7,38.4,21.8,99,62,21,30.42,30.17,10,3,10,0.00
2013-9-18,79.5,60.4,48.3,51.7,43.0,26.5,98,62,15,30.23,29.98,11,2,11,0.00
2013-9-19,78.3,65.9,58.1,66.9,60.3,46.8,100,84,39,30.05,29.88,16,3,16,0.16
2013-9-20,79.4,69.9,64.8,69.6,63.9,50.9,100,84,41,29.91,29.72,16,6,16,0.28
2013-9-21,69.1,60.0,49.8,64.3,46.0,23.6,98,66,22,29.91,29.68,20,6,21,0.00
2013-9-22,63.1,52.2,41.6,46.0,34.5,19.8,86,55,24,30.09,29.87,12,3,12,0.00
2013-9-23,64.8,50.6,41.0,46.0,38.4,26.3,99,68,27,30.19,30.05,11,3,11,0.00
2013-9-24,69.8,52.6,36.3,45.8,35.5,16.8,100,62,17,30.18,29.94,13,3,13,0.00
2013-9-25,71.7,56.3,47.0,53.8,44.3,29.6,100,71,23,30.01,29.88,11,3,11,0.00
2013-9-26,78.9,59.7,44.3,53.2,37.8,9.9,100,60,9,30.17,29.95,12,3,12,0.00
2013-9-27,78.6,59.1,42.0,54.4,43.5,24.0,100,66,19,30.22,30.09,12,3,12,0.00
2013-9-28,80.9,62.2,45.3,52.9,41.3,16.3,100,59,11,30.20,29.98,16,3,16,0.00
2013-9-29,64.2,59.5,58.6,45.9,44.0,38.5,60,56,52,30.02,29.97,5,0,5,0.00
2013-9-30,70.2,59.3,47.7,56.5,46.7,35.0,100,69,29,30.04,29.88,14,3,14,0.00
2013-10-1,69.7,59.7,47.8,62.4,55.0,47.0,100,86,46,30.03,29.92,17,4,17,0.00
2013-10-2,82.8,67.1,57.1,65.0,47.5,24.7,100,61,15,30.07,29.95,8,1,8,0.00
2013-10-3,76.6,65.0,55.0,67.7,58.3,42.2,100,81,43,30.05,29.89,17,3,17,0.00
2013-10-4,79.0,68.0,63.4,67.4,62.5,50.5,99,84,42,30.04,29.92,17,3,17,1.18
2013-10-5,76.0,67.2,59.7,69.1,63.7,57.4,100,90,56,30.03,29.82,10,2,11,0.16
2013-10-6,69.0,61.5,49.7,67.2,59.1,41.1,99,92,69,29.86,29.66,19,7,19,0.43
2013-10-7,59.0,48.7,40.3,44.1,37.7,25.2,100,69,31,30.17,29.71,22,7,24,0.00
2013-10-8,69.7,52.8,36.7,48.0,36.1,18.2,100,63,16,30.29,30.13,10,2,11,0.00
2013-10-9,72.2,54.7,39.2,48.5,35.5,10.4,100,61,10,30.32,30.15,11,3,13,0.00
2013-10-10,72.5,55.0,38.4,52.2,33.8,5.2,100,58,8,30.27,30.07,9,2,9,0.00
2013-10-11,75.3,55.6,39.2,50.8,39.3,17.6,100,65,12,30.17,30.00,7,1,8,0.00
2013-10-12,78.8,60.7,44.8,55.6,46.0,28.5,100,68,18,30.13,29.97,13,2,13,0.00
2013-10-13,67.2,58.5,46.3,57.9,36.4,14.9,95,51,16,30.39,30.07,13,4,14,0.00
2013-10-14,65.3,51.5,41.0,43.6,35.9,18.2,100,62,17,30.44,30.21,13,3,13,0.00
2013-10-15,62.4,53.0,40.4,61.0,48.8,38.8,100,87,62,30.27,29.81,14,4,14,0.04
2013-10-16,62.4,53.4,48.0,60.7,43.0,29.4,100,69,41,29.94,29.79,20,8,20,0.00
2013-10-17,50.0,47.2,41.1,46.8,43.2,37.6,100,86,65,29.94,29.76,15,6,15,0.16
2013-10-18,62.7,47.5,35.8,41.0,35.4,21.6,100,70,22,29.95,29.81,19,6,19,0.00
2013-10-19,50.9,42.2,37.4,41.2,35.0,21.7,100,78,33,29.98,29.75,15,6,16,0.20
2013-10-20,59.7,48.8,38.3,34.5,29.7,15.3,84,51,18,29.94,29.81,17,8,18,0.00
2013-10-21,54.3,48.1,37.5,46.6,35.8,23.2,87,63,39,29.94,29.80,18,8,18,0.00
2013-10-22,50.0,37.4,28.3,34.8,23.7,9.4,98,63,24,30.03,29.85,17,7,17,0.00
2013-10-23,44.0,35.3,30.2,36.8,29.3,17.1,100,82,35,30.04,29.82,18,4,18,0.00
2013-10-24,43.0,35.7,29.8,34.0,29.7,19.4,100,81,42,30.25,29.96,14,6,14,0.00
2013-10-25,48.4,38.9,30.2,32.6,22.1,9.1,100,55,23,30.39,30.13,17,7,19,0.00
2013-10-26,50.2,42.7,36.7,30.5,21.8,11.2,71,44,29,30.16,29.78,26,12,26,0.00
2013-10-27,53.5,41.7,29.2,34.0,23.8,8.0,100,56,17,30.13,29.96,16,4,18,0.00
2013-10-28,56.7,41.6,27.1,36.9,26.7,15.6,100,61,21,30.41,30.05,10,3,10,0.00
2013-10-29,55.6,43.1,34.3,39.8,29.4,21.8,91,61,29,30.45,30.21,10,4,10,0.00
2013-10-30,62.4,48.9,31.7,55.6,40.6,29.2,100,77,33,30.23,29.90,14,4,14,0.51
2013-10-31,62.3,59.0,55.0,61.9,57.9,51.2,100,96,82,29.94,29.20,28,12,28,1.61
2013-11-1,56.9,47.3,44.1,54.5,37.4,29.3,95,69,49,29.71,29.23,29,11,29,0.08
2013-11-2,49.0,44.4,40.0,43.4,38.2,26.6,99,81,44,30.11,29.65,12,5,13,0.08
2013-11-3,49.1,39.8,34.0,36.6,27.9,16.7,89,64,32,30.44,30.07,11,5,11,0.00
2013-11-4,49.4,41.0,31.3,35.8,26.0,9.0,92,59,20,30.47,30.26,16,7,16,0.00
2013-11-5,53.0,48.8,39.6,44.1,38.3,32.3,96,68,47,30.38,30.13,15,5,15,0.00
2013-11-6,54.9,50.8,40.3,52.1,41.4,25.9,99,72,36,30.16,29.80,22,12,23,0.12
2013-11-7,47.2,39.6,32.2,37.0,24.5,11.0,84,57,28,30.21,30.00,21,10,21,0.00
2013-11-8,45.0,37.0,30.9,33.6,25.1,9.0,100,67,26,30.34,30.15,16,4,16,0.00
2013-11-9,57.5,47.6,37.9,30.6,25.2,18.8,61,42,25,30.19,29.81,28,13,28,0.00
2013-11-10,47.3,40.6,31.0,29.5,21.9,12.7,85,48,28,30.35,29.94,25,10,26,0.00
2013-11-11,46.4,36.5,26.3,38.0,26.7,13.1,100,70,33,30.39,30.02,19,8,19,0.12
2013-11-12,34.8,26.7,21.6,17.8,14.2,5.3,83,61,31,30.64,30.34,21,6,21,0.00
2013-11-13,37.2,27.9,19.1,18.3,10.8,-12.9,91,54,12,30.64,30.22,20,9,20,0.00
2013-11-14,51.6,37.0,27.8,19.0,10.0,-14.1,59,37,6,30.30,29.98,24,10,24,0.00
2013-11-15,50.6,41.7,34.3,23.8,16.7,9.3,58,37,20,30.10,29.97,17,7,17,0.00
2013-11-16,55.7,46.3,32.1,52.5,40.8,22.4,100,82,56,30.12,29.76,23,9,23,0.00
2013-11-17,62.7,58.3,54.3,59.6,55.3,51.6,98,90,72,29.76,29.30,29,14,41,0.79
2013-11-18,41.3,37.1,33.8,30.8,22.1,14.4,70,54,42,30.20,29.74,26,15,27,0.00
2013-11-19,42.5,34.5,28.0,20.9,15.4,1.6,71,47,20,30.42,30.14,17,4,17,0.00
2013-11-20,42.5,33.5,24.3,26.7,21.3,13.6,90,63,35,30.47,30.19,20,6,20,0.00
2013-11-21,44.6,41.7,37.2,44.6,38.5,23.4,100,89,52,30.28,30.14,15,4,15,0.51
2013-11-22,45.4,39.5,25.6,45.4,34.8,17.5,100,85,50,30.43,30.11,14,4,17,0.04
2013-11-23,30.5,24.2,15.0,25.4,10.8,-7.9,98,60,22,30.64,30.31,24,7,24,0.00
2013-11-24,25.3,18.1,12.7,15.3,7.8,-1.2,86,64,39,30.70,30.48,14,6,16,0.00
2013-11-25,29.7,24.0,15.4,21.6,10.8,1.5,79,58,32,30.54,30.11,19,10,19,0.00
2013-11-26,34.9,30.0,26.2,27.1,21.2,12.9,92,70,45,30.16,29.93,14,6,15,0.00
2013-11-27,30.8,24.0,17.5,14.9,5.3,-8.4,68,47,20,30.31,29.96,18,7,19,0.00
2013-11-28,27.4,23.6,16.9,19.7,10.9,-1.3,87,60,33,30.44,30.23,16,4,16,0.00
2013-11-29,26.8,25.1,24.0,17.8,15.3,10.1,72,66,52,30.61,30.43,10,4,10,0.00
2013-11-30,48.1,32.7,24.1,24.6,17.8,8.4,79,57,22,30.58,30.07,14,6,15,0.00
2013-12-1,44.9,34.7,27.5,28.7,24.6,17.9,98,68,37,30.15,29.95,11,3,11,0.00
2013-12-2,40.0,31.0,22.2,31.7,25.1,18.0,100,80,48,30.05,29.84,12,4,12,0.00
2013-12-3,40.7,35.2,30.7,39.8,33.7,20.3,100,94,64,29.90,29.77,12,5,12,0.00
2013-12-4,56.7,46.2,34.3,55.1,45.2,33.8,100,96,84,29.89,29.62,16,6,16,0.04
2013-12-5,57.6,38.4,28.2,54.5,28.5,12.6,93,68,46,30.21,29.63,27,12,27,0.00
2013-12-6,28.4,26.1,21.7,17.4,13.5,6.9,65,58,49,30.46,30.14,14,6,14,0.00
2013-12-7,25.7,19.5,12.1,15.9,7.5,-0.8,90,61,33,30.71,30.41,15,4,16,0.00
2013-12-8,24.9,19.3,12.6,24.8,14.1,2.5,100,80,56,30.67,29.97,18,8,19,0.00
2013-12-9,27.7,22.9,15.6,27.3,15.9,1.9,100,75,50,30.23,29.90,23,12,28,0.00
2013-12-10,21.9,14.7,3.8,7.1,2.1,-16.2,86,58,20,30.29,29.99,29,12,29,0.00
2013-12-11,23.6,15.7,2.4,15.9,7.7,0.5,94,71,52,30.58,30.24,20,8,20,0.00
2013-12-12,18.2,9.9,0.3,8.3,-1.8,-14.5,98,61,25,30.62,30.24,19,8,20,0.00
2013-12-13,32.2,21.1,9.4,19.0,9.2,-1.0,77,60,33,30.31,30.13,12,5,12,0.00
2013-12-14,25.4,21.3,19.3,24.2,19.2,14.4,100,92,76,30.25,29.82,19,9,19,0.00
2013-12-15,22.8,16.9,9.0,19.9,10.8,0.8,94,77,56,30.16,29.85,24,11,25,0.00
2013-12-16,22.8,11.9,0.1,13.0,5.1,-5.8,100,76,39,30.28,30.01,13,4,13,0.00
2013-12-17,25.2,20.7,14.2,22.4,17.8,10.6,100,89,61,30.07,29.93,17,9,20,0.00
2013-12-18,25.5,20.9,13.9,21.5,11.2,1.8,95,67,40,30.22,29.92,16,8,16,0.00
2013-12-19,41.5,34.6,19.8,36.0,24.8,8.1,100,69,39,29.99,29.85,15,5,15,0.00
2013-12-20,51.9,43.2,35.4,51.8,43.0,33.5,100,99,87,29.90,29.67,12,3,12,0.28
2013-12-21,50.7,36.6,33.4,50.6,36.6,31.5,100,100,92,29.86,29.59,18,6,19,1.34
2013-12-22,39.0,35.1,32.9,38.3,34.1,29.5,100,96,80,30.01,29.52,22,8,22,0.28
2013-12-23,33.3,26.3,12.6,31.2,18.2,0.2,93,71,52,30.44,29.96,19,11,20,0.00
2013-12-24,19.9,12.3,6.5,12.6,5.1,-1.8,96,73,49,30.62,30.39,18,7,18,0.00
2013-12-25,24.3,20.3,11.4,22.8,14.8,6.7,94,79,59,30.59,30.11,17,8,17,0.00
2013-12-26,27.5,24.7,22.0,26.1,16.4,5.8,100,72,46,30.35,30.04,22,8,22,0.00
2013-12-27,40.5,33.6,25.7,29.1,23.4,16.6,82,67,41,30.35,30.11,16,6,16,0.00
2013-12-28,47.8,38.3,32.4,29.9,26.3,19.8,82,63,33,30.15,29.90,17,7,17,0.00
2013-12-29,43.1,33.5,22.1,33.2,23.1,8.5,100,66,40,30.09,29.68,19,8,21,0.00
2013-12-30,23.9,19.4,16.5,13.2,6.9,-4.8,73,58,32,30.31,30.02,20,6,20,0.00
2013-12-31,18.2,14.5,12.6,12.9,6.5,-2.7,92,71,47,30.41,30.13,24,11,24,0.00
2014-1-1,15.8,14.4,12.3,14.0,10.8,3.9,95,85,61,30.38,30.17,15,7,16,0.00
2014-1-2,14.6,11.4,0.2,11.7,4.3,-12.4,89,73,44,30.46,30.07,22,10,22,0.00